Location: Landeleau
(48.2273°N, 3.7285°W)
Time: 23:46:52
(UTC+00:00)

STARLINK-1128 - Pass Details

Date: 30 March 2020
Orbit: 549 x 550 km, 53.0° (Epoch: 24 May)

Event Time Altitude Azimuth Distance (km) Brightness Sun altitude
Rises 20:59:18 0° 295° (WNW) 2,726 8.6 -21.9°
Reaches altitude 10° 21:01:35 10° 291° (WNW) 1,830 7.3 -22.2°
Maximum altitude 21:05:36 51° 216° (SW) 701 4.0 -22.7°
Enters shadow 21:05:37 51° 215° (SW) 701 4.0 -22.7°
